{"data":{"norad_id":57781,"epoch":"2026-05-25T05:27:14.107104Z","epoch_age_seconds":62198,"freshness":"FRESH","line1":"1 57781U 23134L   26145.22724661  .00004034  00000+0  15614-3 0  9999","line2":"2 57781  43.0012 122.1112 0001445 240.0302 120.0406 15.27556100151210","mean_motion":15.275561,"eccentricity":0.0001445,"inclination_deg":43.0012,"raan_deg":122.1112,"arg_perigee_deg":240.0302,"mean_anomaly_deg":120.0406,"bstar":0.00015614,"rev_number":15121,"period_min":94.268223602393,"perigee_km":482.12921043853,"apogee_km":484.1121139029,"semimajor_km":6861.2576621707,"source":"CELESTRAK","updated_at":"2026-05-25T13:38:18.405836Z"}}